sat.trackr.live / text

‹ back to catalog

STARLINK-2431

NORAD 47839 · 2021-018BE

PAYLOAD ACTIVE UNKNOWN

§ Identity

Operator
Country
US
Launch date
2021-03-11
Launch site
AFETR
Launch vehicle
Mass (kg)
RCS (m²)

Purposes: comms

External: N2YO · Heavens-Above · Gunter

§ Orbital elements

Epoch: 2026-09-12T21:27:28.596672Z

Period
94.01 min
Inclination
53.1600°
Eccentricity
0.0001183
Mean motion
15.31703377 rev/d
Perigee alt
469.9 km
Apogee alt
471.5 km
Semi-major
6,848.9 km
B*
6.4975e-5
RAAN
65.7598°
Arg perigee
76.2650°
Mean anomaly
283.8483°
Rev number
30,578

§ Raw data

STARLINK-24311 47839U 21018BE  26255.89408098  .00001652  00000+0  64975-4 0  99972 47839  53.1600  65.7598 0001183  76.2650 283.8483 15.31703377305783

JSON: /api/v1/satellites/47839 · /tle

For live sub-satellite position, see the globe view (requires WebGL).

§ Visibility from observer

Set your observer location to see the next 7 days of passes ≥ 10°. The values pass through the URL so the page stays shareable.

No JS? Fill the form by hand. The geolocation button needs JavaScript.